www.pogodaiklimat.ru

Погода и климат >> Архив погоды >> Россия >> Кемеровская область >> Кемерово


АРХИВ ПОГОДЫ в Кемерово

Время (UTC), дата Ветер
(напр.,м/с)
 
Видим.   Явления Облачность Т
(С)
Тd
(С)
f
(%)
Тe
(С)
Тes
(С)
Комфортность P
(гПа)
Po
(гПа)
Тmin
(С)
Tmax
(С)
R
(мм)
R24
(мм)
S
(см)
15 9.09 штиль 0 20 км 5/0
[Ci fib]
+11.5 +10.1 91 +11 +11 по сезону 1011.0 993.3
18 9.09 Ю 1 20 км 3/0
[Ci fib]
+7.0 +6.7 98 +6 +6 по сезону 1011.3 993.3
21 9.09 штиль 0 2000 м дымка ясно +5.0 +4.8 99 +4 +4 по сезону 1011.7 993.5
00 10.09 штиль 0 1000 м в посл. час туман 8/5 600 м
[Sc Ci fib]
+4.8 +4.7 99 +4 +4 по сезону 1012.8 994.6 +3.9
03 10.09 ЮВ 1 20 км 10/6 600 м
[Sc Ci fib]
+12.7 +10.4 86 +13 +14 тепло 1012.8 995.1
06 10.09 С 1 50 км 10/8 600 м
[Sc Ci fib]
+17.3 +11.1 67 +18 +20 тепло 1012.2 994.9
09 10.09 С 2 50 км в посл. час ливневой дождь {гроза} 10/10 600 м
[Cb cap]
+14.5 +10.8 78 +14 +14 по сезону 1013.2 995.6
12 10.09 Ю 2 20 км {гроза, ливн. осадки} [макс. диам. градин 8 мм] 10/8 600 м
[Sc Ci fib]
+13.2 +11.6 90 +12 +12 по сезону 1014.0 996.4 +18.2 9
15 10.09 Ю 1 10 км слаб. ливневой дождь 10/10 600 м
[Cb cap]
+11.3 +10.9 97 +11 +11 по сезону 1015.0 997.2
18 10.09 ЮВ 1 10 км слаб. ливневой дождь 10/10 600 м
[Cb cap]
+10.1 +9.8 98 +9 +9 по сезону 1014.5 996.7
21 10.09 ЮЗ 1 10 км в посл. час ливневой дождь 10/10 600 м
[Sc]
+10.6 +10.4 99 +10 +10 тепло 1013.2 995.4
00 11.09 Ю 1 20 км {ливн. осадки} 10/10 300 м
[Sc]
+10.3 +10.1 99 +10 +10 тепло 1012.9 995.1 +9.9 1
03 11.09 СЗ 1 10 км слаб. ливневой дождь 10/10 600 м
[Cb cap]
+10.2 +8.8 91 +10 +10 по сезону 1013.0 995.2 +9.7
06 11.09 З 2 10 км слаб. ливневой дождь 10/10 300 м
[Cb cap]
+10.3 +9.2 93 +9 +9 прохладно 1013.3 995.5
09 11.09 СЗ 3
{10}
20 км в посл. час ливневой дождь 10/6 600 м
[Cb cap Ci sp]
+11.3 +7.2 76 +10 +11 прохладно 1013.6 995.8
12 11.09 З 1 20 км {ливн. осадки} 10/10 600 м
[Cb cap]
+10.2 +5.9 75 +10 +10 прохладно 1014.9 997.1 +11.9 3
15 11.09 З 2 10 км слаб. ливневой дождь 10/10 600 м
[Cb cap]
+7.7 +6.7 93 +6 +6 прохладно 1017.3 999.2
18 11.09 З 2 20 км {ливн. осадки} 10/10 600 м
[Sc]
+7.4 +6.7 95 +5 +5 по сезону 1019.1 1001.0
21 11.09 СЗ 2 20 км {ливн. осадки} 8/8 600 м
[Sc]
+6.4 +5.4 93 +4 +4 по сезону 1021.0 1002.7
00 12.09 З 2 20 км в посл. час ливневой дождь 10/10 600 м
[Sc]
+4.6 +3.7 94 +2 +2 прохладно 1023.3 1004.9 +4.6 2
03 12.09 З 3 20 км 10/10 600 м
[Sc]
+5.1 +1.5 78 +2 +2 холодно 1025.0 1006.6 +4.4
06 12.09 З 4 20 км 9/9 600 м
[Sc]
+8.0 +0.6 60 +5 +6 очень
холодно
1024.4 1006.2
09 12.09 З 3 20 км в посл. час ливневой дождь 9/9 600 м
[Sc]
+8.0 +2.4 68 +6 +6 холодно 1023.3 1005.1
12 12.09 ЮЗ 3 20 км {ливн. осадки} 10/10 600 м
[Sc]
+7.3 +3.6 77 +5 +5 очень
холодно
1022.3 1004.1 +8.3 0.0
15 12.09 Ю 2 20 км 10/10 600 м
[Sc]
+6.8 +4.0 82 +5 +5 прохладно 1021.2 1003.0
18 12.09 ЮЗ 2 20 км 10/10 600 м
[Sc]
+7.1 +3.1 76 +5 +5 по сезону 1019.0 1000.8
21 12.09 Ю 2 20 км 10/10 600 м
[Sc]
+7.2 +3.6 78 +5 +5 по сезону 1016.3 998.2
00 13.09 ЮЗ 1 10 км слаб. ливневой дождь 10/10 600 м
[Cb cap]
+6.4 +5.5 94 +5 +5 по сезону 1015.6 997.5 +6.4 2
03 13.09 ЮЗ 1 10 км слаб. ливневой дождь 10/10 300 м
[Cb cap]
+6.9 +6.3 96 +6 +6 прохладно 1014.9 996.8 +6.4
06 13.09 СЗ 1 10 км слаб. ливневой дождь 10/10 300 м
[Cb cap]
+7.8 +6.4 91 +7 +7 холодно 1014.3 996.3
09 13.09 С 2 20 км {ливн. осадки} 10/8 600 м
[Cb cap Ci fib]
+8.0 +6.1 88 +6 +7 холодно 1015.0 997.0
12 13.09 СЗ 2 20 км {ливн. осадки} 8/8 600 м
[Sc]
+7.4 +5.8 90 +5 +5 очень
холодно
1016.2 998.2 +8.3 13
15 13.09 штиль 0 20 км 3/0
[Ci fib]
+3.4 +3.2 99 +2 +2 холодно 1018.0 999.6
18 13.09 штиль 0 10 км 1/0
[Ci fib]
0.0 -0.1 99 -1 -1 холодно 1019.5 1000.9
21 13.09 штиль 0 200 м туман ясно -2.0 -2.0 100 -3 -3 очень
холодно
1020.3 1001.5
00 14.09 Ю 1 200 м туман ясно -2.5 -2.5 100 -5 -5 очень
холодно
1021.1 1002.3 -2.5
03 14.09 ЮВ 2 200 м туман ясно +0.6 +0.6 100 -3 0 очень
холодно
1021.5 1002.9 -2.5
06 14.09 Ю 3 50 км {туман} 10/3 600 м
[Cu hum Ac und]
+7.4 +5.2 86 +4 +6 очень
холодно
1020.1 1001.9
09 14.09 Ю 4 50 км 10/6 600 м
[Sc Ac trans Ci fib]
+10.3 +3.5 63 +8 +9 прохладно 1018.2 1000.3
12 14.09 Ю 2 50 км 10/6 600 м
[Sc Ac trans Ci fib]
+10.7 +3.8 62 +10 +10 по сезону 1016.9 999.0 +12.2
15 14.09 Ю 1 20 км 10/10 600 м
[Sc]
+9.0 +6.1 82 +8 +8 по сезону 1017.1 999.1
18 14.09 Ю 1 20 км 10/5 600 м
[Sc Ac trans Ci fib]
+9.5 +7.7 89 +9 +9 тепло 1015.9 997.9
21 14.09 Ю 1 10 км слаб. ливневой дождь 10/10 600 м
[Cb cap]
+9.2 +8.5 95 +8 +8 по сезону 1014.6 996.7
00 15.09 Ю 1 20 км в посл. час ливневой дождь 10/10 600 м
[Sc]
+9.9 +9.6 98 +9 +9 тепло 1014.4 996.5 +9.0 1
03 15.09 ЮЗ 1 20 км 10/10 600 м
[Sc]
+12.1 +10.7 91 +12 +12 тепло 1014.3 996.6
06 15.09 З 3 20 км 10/10 600 м
[Sc]
+14.9 +10.9 77 +14 +14 по сезону 1013.8 996.3
09 15.09 З 1 10 км слаб. ливневой дождь 9/9 600 м
[Cb cap]
+15.3 +12.3 82 +16 +16 тепло 1013.8 996.3
12 15.09 З 2 20 км {ливн. осадки} 9/8 600 м
[Sc Ci fib]
+14.7 +11.8 83 +14 +14 тепло 1014.2 996.6 +16.0 0.4
15 15.09 ЮЗ 1 20 км 5/0
[Ci fib]
+11.4 +10.6 95 +11 +11 по сезону 1016.2 998.4
18 15.09 Ю 1 20 км 8/5 600 м
[Sc Ci fib]
+9.9 +9.7 99 +9 +9 тепло 1017.1 999.2
21 15.09 Ю 1 200 м туман 8/6 600 м
[Sc Ci fib]
+7.8 +7.7 99 +7 +7 по сезону 1018.4 1000.3
00 16.09 штиль 0 500 м туман 8/4 600 м
[Sc Ci fib]
+9.0 +8.9 99 +8 +8 тепло 1019.7 1001.7 +6.6
03 16.09 Ю 3 500 м туман 10/10 600 м
[Sc]
+11.3 +11.3 100 +9 +9 по сезону 1020.3 1002.4
06 16.09 Ю 3 20 км {туман} 8/5 600 м
[Sc Ci fib]
+17.2 +12.5 74 +17 +20 тепло 1019.2 1001.7
09 16.09 ЮВ 2 20 км 10/10 600 м
[Sc]
+19.0 +12.5 66 +21 +21 комфорт 1017.7 1000.4

 

Местоположение метеостанции Кемерово (Кемеровская область, Россия): широта 55.25 долгота 86.22 высота над уровнем моря 148 м.

В архиве по умолчанию представлена погода в Кемерово за последнюю неделю. Архивные данные за месяц целиком и за предыдущие месяцы, начиная с января 2011 года, Вы можете получить, выбрав интересующий диапазон дат из раскрывающегося списка и нажав кнопку "Ввод!".


*Определитесь, кто Вы:
робот инопланетянин человек

Внимание! Время в таблицах - всемирное. Для получения местного времени необходимо прибавить поправку, которая равна 7 ч.

Смотрите также архив погоды в соседних городах и на ближайших метеорологических станциях:

Погода в Кемерово АМС (Кемеровская область, Россия) (17 км)
Погода в Топках (Кемеровская область, Россия) (39 км)
Погода в Крапивино (Кемеровская область, Россия) (47 км)
Погода в Барзасе (Кемеровская область, Россия) (50 км)
Погода в Промышленной (Кемеровская область, Россия) (55 км)
Погода в Ленинск-Кузнецком (Кемеровская область, Россия) (59 км)
Погода в Красном (Кемеровская область, Россия) (89 км)
Погода в Белово (Кемеровская область, Россия) (89 км)
Погода в Центральном Руднике (Кемеровская область, Россия) (91 км)
Погода в Тайге (Кемеровская область, Россия) (99 км)

Пояснения к столбцам:

Ветер - указаны скорость ветра в м/с - средняя за 10 мин, порывы в срок и между сроками (в фигурных скобках) и направление, откуда дует ветер: С - северный, СВ - северо-восточный, В - восточный, ЮВ - юго-восточный, Ю - южный, ЮЗ - юго-западный, З - западный, СЗ - северо-западный.
Видимость - горизонтальная дальность видимости в метрах или километрах. При видимости от 1 до 10 км при отсутствии осадков обычно наблюдается дымка, при ухудшении видимости до 1 км и менее - туман. В сухую погоду видимость может ухудшаться дымом, пылью или мглою.
Явления - указаны атмосферные явления, наблюдавшиеся в срок или в последний час перед сроком; фигурными скобками обозначены явления, наблюдавшиеся между сроками (за 1-3 часа до срока); квадратными скобками обозначены град или гололедные отложения с указанием их диаметра в мм.
Облачность - указаны через наклонную черту общая и нижняя облачность в баллах и высота нижней границы облаков в метрах; квадратными скобками обозначены формы облаков: Ci - перистые, Cs - перисто-слоистые, Cc - перисто-кучевые, Ac - высококучевые, As - высокослоистые, Sc - слоисто-кучевые, Ns - слоисто-дождевые, Cu - кучевые, Cb - кучево-дождевые. Подробнее классификацию облаков см. в Атласе облаков (PDF).
T - Температура воздуха - температура, измеренная на высоте 2 м над землей.
Td - Температура точки росы - температура, при понижении до которой содержащийся в воздухе водяной пар достигнет насыщения.
f - Относительная влажность воздуха - влажноcть воздуха, измеренная на высоте 2 м над землей.
Te - Эффективная температура - температура, которую ощущает одетый по сезону человек в тени. Характеристика душности погоды. При расчете учитывается влияние влажности воздуха и скорости ветра на теплоощущения человека.
Tes - Эффективная температура на солнце - температура, которую ощущает человек, с поправкой на солнечный нагрев. Характеристика знойности погоды. Зависит от высоты солнца над горизонтом, облачности и скорости ветра. Ночью, в пасмурную погоду, а также при ветре 12 м/с и более поправка равна нулю.
P - Атмосферное давление - приведенное к уровню моря атмосферное давление.
Po - Атмосферное давление - измеренное на уровне метеостанции атмосферное давление.
Tmin - Минимальная температура - минимум температуры воздуха на высоте 2 м над землей.
Tmax - Максимальная температура - максимум температуры воздуха на высоте 2 м над землей.
R - Количество осадков - Количество выпавших осадков за период времени, мм. При наведении курсора мыши на число - период времени, за который выпало указанное количество осадков.
R24 - Количество осадков - Количество выпавших осадков за 24 часа, мм.
S - Снежный покров - Высота снежного покрова, см. При наведении курсора мыши на число - состояние снежного покрова и степень покрытия местности в баллах.